| time (UTC) | temp F | wind direction | speed MPH | gust MPH | rain 1hr in | rain 24hr in | rain mn in | humidity % | barometer mb |
| 20260504160320 | 46 | 312 | 0.0 | 3.0 | 0.04 | 3.58 | 0.01 | 95 | 1019.8 |
| 20260504150833 | 48 | 351 | 0.0 | 3.0 | 0.00 | 3.94 | 0.00 | 95 | 1020.0 |
| 20260504150314 | 48 | 307 | 0.0 | 3.0 | 0.00 | 3.94 | 0.00 | 95 | 1019.9 |
| 20260504141330 | 48 | 320 | 0.0 | 2.0 | 0.00 | 4.41 | 0.00 | 95 | 1020.3 |
| 20260504140812 | 48 | 335 | 0.0 | 2.0 | 0.00 | 4.41 | 0.00 | 95 | 1020.3 |
| 20260504130812 | 48 | 320 | 1.0 | 3.0 | 0.00 | 5.04 | 0.88 | 95 | 1019.9 |
| 20260504130336 | 48 | 318 | 1.0 | 3.0 | 0.00 | 5.04 | 0.88 | 95 | 1019.9 |
| 20260504110316 | 51 | 331 | 0.0 | 1.0 | 0.00 | 6.46 | 0.87 | 94 | 1019.8 |
| 20260504100321 | 52 | 329 | 0.0 | 1.0 | 0.00 | 6.81 | 0.87 | 94 | 1019.2 |
| 20260504081823 | 54 | 4 | 0.0 | 0.0 | 0.00 | 6.89 | 0.87 | 93 | 1018.1 |
| 20260504081332 | 54 | 4 | 0.0 | 0.0 | 0.00 | 6.89 | 0.87 | 93 | 1018.0 |
| 20260504080326 | 54 | 4 | 0.0 | 0.0 | 0.00 | 6.89 | 0.87 | 94 | 1017.9 |
| 20260504070312 | 55 | 52 | 0.0 | 1.0 | 0.35 | 6.89 | 0.87 | 93 | 1017.2 |
| 20260504050339 | 55 | 185 | 2.0 | 3.0 | 0.04 | 6.57 | 0.77 | 94 | 1016.9 |
| 20260504045830 | 55 | 190 | 0.0 | 3.0 | 0.04 | 6.65 | 0.77 | 94 | 1016.9 |
| 20260504045328 | 55 | 190 | 1.0 | 3.0 | 0.04 | 6.65 | 0.77 | 94 | 1016.8 |
| 20260504044814 | 55 | 171 | 1.0 | 4.0 | 0.04 | 6.65 | 0.77 | 95 | 1016.8 |
| 20260504044318 | 55 | 165 | 2.0 | 4.0 | 0.00 | 6.61 | 0.76 | 95 | 1016.7 |
| 20260504043821 | 55 | 211 | 3.0 | 4.0 | 0.04 | 6.61 | 0.76 | 95 | 1016.8 |
| 20260504043327 | 55 | 201 | 0.0 | 1.0 | 0.04 | 6.61 | 0.76 | 95 | 1016.7 |
| 20260504042830 | 55 | 202 | 0.0 | 8.0 | 0.04 | 6.61 | 0.76 | 94 | 1016.8 |
| 20260504042322 | 55 | 202 | 2.0 | 11.0 | 0.04 | 6.61 | 0.76 | 94 | 1016.8 |
| 20260504041825 | 55 | 180 | 5.0 | 11.0 | 0.04 | 6.61 | 0.76 | 94 | 1016.8 |
| 20260504041327 | 55 | 190 | 5.0 | 8.0 | 0.04 | 6.61 | 0.76 | 94 | 1016.8 |
| 20260504040829 | 56 | 190 | 2.0 | 5.0 | 0.04 | 6.61 | 0.76 | 94 | 1016.9 |
| 20260504040312 | 56 | 207 | 1.0 | 3.0 | 0.04 | 6.61 | 0.76 | 94 | 1017.0 |
| 20260504035836 | 57 | 238 | 0.0 | 1.0 | 0.08 | 6.61 | 0.76 | 95 | 1017.0 |
| 20260504035320 | 57 | 238 | 0.0 | 1.0 | 0.12 | 6.61 | 0.76 | 95 | 1016.8 |
| 20260504034819 | 57 | 258 | 0.0 | 1.0 | 0.12 | 6.61 | 0.76 | 95 | 1016.9 |
| 20260504034324 | 57 | 259 | 0.0 | 1.0 | 0.08 | 6.57 | 0.76 | 95 | 1016.8 |
| 20260504033829 | 57 | 276 | 0.0 | 3.0 | 0.12 | 6.57 | 0.76 | 95 | 1016.9 |
| 20260504033335 | 57 | 271 | 0.0 | 3.0 | 0.43 | 6.57 | 0.76 | 95 | 1017.0 |
| 20260504032840 | 57 | 290 | 0.0 | 1.0 | 0.47 | 6.57 | 0.76 | 95 | 1016.9 |
| 20260504032345 | 57 | 294 | 0.0 | 1.0 | 1.73 | 6.57 | 0.76 | 95 | 1016.9 |
| 20260504031822 | 57 | 294 | 0.0 | 0.0 | 1.73 | 6.57 | 0.76 | 95 | 1016.8 |
| 20260504031356 | 57 | 294 | 0.0 | 2.0 | 1.73 | 6.57 | 0.76 | 95 | 1016.8 |
| 20260504030813 | 57 | 41 | 0.0 | 1.0 | 1.73 | 6.57 | 0.76 | 95 | 1016.8 |
| 20260504030314 | 57 | 43 | 0.0 | 0.0 | 1.73 | 6.57 | 0.76 | 95 | 1017.0 |
| 20260504025817 | 57 | 43 | 0.0 | 0.0 | 1.69 | 6.50 | 0.74 | 95 | 1017.0 |
| 20260504025336 | 57 | 44 | 0.0 | 0.0 | 1.69 | 6.50 | 0.74 | 95 | 1017.0 |
| 20260504024820 | 56 | 44 | 0.0 | 1.0 | 1.69 | 6.50 | 0.74 | 95 | 1017.0 |
| 20260504024325 | 56 | 43 | 0.0 | 2.0 | 1.69 | 6.50 | 0.74 | 95 | 1017.1 |
| 20260504023828 | 56 | 75 | 0.0 | 2.0 | 1.61 | 6.42 | 0.72 | 95 | 1017.1 |
| 20260504023352 | 56 | 202 | 0.0 | 2.0 | 1.30 | 6.10 | 0.66 | 95 | 1017.6 |
| 20260504022814 | 56 | 150 | 1.0 | 2.0 | 1.30 | 6.10 | 0.66 | 95 | 1017.1 |
| 20260504022333 | 56 | 190 | 0.0 | 3.0 | 0.04 | 4.84 | 0.41 | 95 | 1017.3 |
| 20260504021817 | 56 | 190 | 1.0 | 3.0 | 0.08 | 4.84 | 0.41 | 95 | 1017.4 |
| 20260504021342 | 56 | 190 | 1.0 | 3.0 | 0.08 | 4.84 | 0.41 | 95 | 1017.4 |
| 20260504020826 | 56 | 190 | 2.0 | 3.0 | 0.08 | 4.84 | 0.41 | 95 | 1017.4 |
| 20260504020330 | 56 | 194 | 2.0 | 4.0 | 0.08 | 4.84 | 0.41 | 95 | 1017.6 |
| 20260504015827 | 56 | 196 | 1.0 | 5.0 | 0.04 | 4.80 | 0.40 | 95 | 1017.7 |
| 20260504015333 | 56 | 180 | 3.0 | 9.0 | 0.04 | 4.80 | 0.40 | 95 | 1017.6 |
| 20260504014831 | 56 | 196 | 4.0 | 9.0 | 0.04 | 4.80 | 0.40 | 94 | 1017.9 |
| 20260504014333 | 56 | 190 | 5.0 | 9.0 | 0.04 | 4.80 | 0.40 | 94 | 1017.7 |
| 20260504013837 | 56 | 171 | 6.0 | 9.0 | 0.08 | 4.80 | 0.40 | 94 | 1017.8 |
| 20260504013312 | 56 | 195 | 5.0 | 6.0 | 0.08 | 4.80 | 0.40 | 94 | 1017.9 |
| 20260504012814 | 56 | 180 | 4.0 | 8.0 | 0.08 | 4.80 | 0.40 | 94 | 1018.0 |
| 20260504012319 | 56 | 164 | 5.0 | 8.0 | 0.08 | 4.80 | 0.40 | 94 | 1018.0 |
| 20260504011824 | 57 | 180 | 3.0 | 8.0 | 0.04 | 4.76 | 0.39 | 94 | 1018.1 |
| 20260504011327 | 57 | 174 | 4.0 | 8.0 | 0.04 | 4.76 | 0.39 | 94 | 1018.1 |
| 20260504010825 | 57 | 171 | 4.0 | 6.0 | 0.08 | 4.76 | 0.39 | 94 | 1018.1 |
| 20260504010329 | 57 | 155 | 3.0 | 6.0 | 0.08 | 4.76 | 0.39 | 94 | 1018.0 |
| 20260504005840 | 57 | 168 | 4.0 | 6.0 | 0.08 | 4.76 | 0.39 | 94 | 1018.2 |
| 20260504005314 | 58 | 190 | 3.0 | 6.0 | 0.08 | 4.76 | 0.39 | 94 | 1018.1 |
| 20260504004818 | 58 | 180 | 5.0 | 6.0 | 0.08 | 4.76 | 0.39 | 93 | 1018.1 |
| 20260504004317 | 58 | 180 | 2.0 | 4.0 | 0.08 | 4.76 | 0.39 | 93 | 1018.2 |
| 20260504003834 | 59 | 204 | 1.0 | 2.0 | 0.08 | 4.72 | 0.39 | 93 | 1018.2 |
| 20260504003330 | 59 | 218 | 0.0 | 1.0 | 0.08 | 4.72 | 0.39 | 94 | 1018.1 |
| 20260504002835 | 59 | 263 | 0.0 | 2.0 | 0.08 | 4.72 | 0.39 | 94 | 1018.1 |
| 20260504002341 | 59 | 242 | 0.0 | 2.0 | 0.08 | 4.72 | 0.39 | 94 | 1018.2 |
| 20260504001846 | 59 | 190 | 0.0 | 2.0 | 0.08 | 4.72 | 0.39 | 94 | 1018.2 |
| 20260504001311 | 59 | 264 | 0.0 | 5.0 | 0.12 | 4.72 | 0.39 | 94 | 1018.1 |
| 20260504000836 | 59 | 231 | 1.0 | 5.0 | 0.08 | 4.69 | 0.38 | 94 | 1018.1 |
| 20260504000315 | 59 | 284 | 2.0 | 5.0 | 0.08 | 4.69 | 0.38 | 94 | 1018.0 |
| 20260503235838 | 59 | 251 | 2.0 | 5.0 | 0.08 | 4.69 | 0.38 | 94 | 1018.0 |
| 20260503235320 | 59 | 266 | 1.0 | 5.0 | 0.08 | 4.69 | 0.38 | 93 | 1017.7 |
| 20260503234822 | 60 | 229 | 2.0 | 6.0 | 0.12 | 4.69 | 0.38 | 93 | 1017.8 |
| 20260503234323 | 61 | 262 | 0.0 | 3.0 | 0.12 | 4.69 | 0.38 | 94 | 1017.8 |
| 20260503233829 | 61 | 13 | 1.0 | 8.0 | 0.08 | 4.65 | 0.37 | 94 | 1017.8 |
| 20260503233334 | 61 | 350 | 1.0 | 8.0 | 0.08 | 4.65 | 0.37 | 94 | 1017.9 |
| 20260503232811 | 61 | 320 | 1.0 | 5.0 | 0.08 | 4.65 | 0.37 | 94 | 1018.0 |
| 20260503232312 | 61 | 325 | 1.0 | 10.0 | 0.12 | 4.65 | 0.37 | 94 | 1017.9 |
| 20260503231818 | 61 | 285 | 4.0 | 10.0 | 0.12 | 4.65 | 0.37 | 94 | 1017.8 |
| 20260503231322 | 61 | 344 | 5.0 | 12.0 | 0.08 | 4.61 | 0.36 | 94 | 1017.8 |
| 20260503230827 | 61 | 360 | 9.0 | 12.0 | 0.08 | 4.61 | 0.36 | 94 | 1017.7 |
| 20260503230325 | 61 | 23 | 6.0 | 11.0 | 0.08 | 4.61 | 0.36 | 94 | 1017.8 |
| 20260503225836 | 61 | 340 | 8.0 | 11.0 | 0.12 | 4.61 | 0.36 | 94 | 1017.7 |
| 20260503225314 | 61 | 10 | 7.0 | 11.0 | 0.12 | 4.61 | 0.36 | 94 | 1017.5 |
| 20260503224819 | 60 | 1 | 8.0 | 12.0 | 0.08 | 4.57 | 0.35 | 94 | 1017.5 |
| 20260503224322 | 60 | 12 | 8.0 | 12.0 | 0.08 | 4.57 | 0.35 | 94 | 1017.4 |
| 20260503223827 | 60 | 343 | 8.0 | 11.0 | 0.08 | 4.57 | 0.35 | 94 | 1017.3 |
| 20260503223347 | 60 | 14 | 7.0 | 16.0 | 0.12 | 4.57 | 0.35 | 94 | 1017.4 |
| 20260503222832 | 60 | 343 | 9.0 | 16.0 | 0.12 | 4.57 | 0.35 | 94 | 1017.4 |
| 20260503222316 | 60 | 7 | 9.0 | 13.0 | 0.08 | 4.53 | 0.35 | 94 | 1017.4 |
| 20260503221821 | 60 | 358 | 9.0 | 13.0 | 0.08 | 4.53 | 0.35 | 94 | 1017.3 |
| 20260503221324 | 60 | 17 | 9.0 | 15.0 | 0.12 | 4.53 | 0.35 | 94 | 1017.6 |
| 20260503220818 | 60 | 351 | 10.0 | 18.0 | 0.12 | 4.53 | 0.35 | 94 | 1017.6 |
| 20260503220325 | 60 | 340 | 10.0 | 16.0 | 0.12 | 4.53 | 0.35 | 94 | 1017.6 |
| 20260503215837 | 60 | 308 | 11.0 | 17.0 | 0.08 | 4.49 | 0.34 | 94 | 1017.5 |
| 20260503215314 | 60 | 13 | 8.0 | 17.0 | 0.08 | 4.49 | 0.34 | 94 | 1017.4 |
| 20260503214818 | 60 | 13 | 10.0 | 17.0 | 0.12 | 4.49 | 0.34 | 94 | 1017.4 |
| 20260503214321 | 61 | 13 | 11.0 | 17.0 | 0.12 | 4.49 | 0.34 | 94 | 1017.3 |
| 20260503213817 | 61 | 352 | 8.0 | 14.0 | 0.12 | 4.49 | 0.34 | 94 | 1017.3 |
| 20260503213323 | 61 | 27 | 10.0 | 16.0 | 0.08 | 4.45 | 0.33 | 94 | 1017.4 |
| 20260503212848 | 61 | 350 | 11.0 | 16.0 | 0.12 | 4.45 | 0.33 | 94 | 1017.3 |
| 20260503212313 | 61 | 356 | 9.0 | 16.0 | 0.12 | 4.45 | 0.33 | 94 | 1017.2 |
| 20260503211812 | 61 | 4 | 11.0 | 16.0 | 0.12 | 4.45 | 0.33 | 94 | 1017.1 |
| 20260503211323 | 61 | 358 | 10.0 | 14.0 | 0.08 | 4.41 | 0.32 | 94 | 1017.1 |
| 20260503210820 | 61 | 355 | 10.0 | 17.0 | 0.08 | 4.41 | 0.32 | 94 | 1017.0 |
| 20260503210325 | 61 | 11 | 10.0 | 17.0 | 0.08 | 4.41 | 0.32 | 94 | 1017.0 |
| 20260503205830 | 61 | 346 | 10.0 | 16.0 | 0.12 | 4.41 | 0.32 | 94 | 1016.9 |
| 20260503205314 | 61 | 357 | 10.0 | 17.0 | 0.12 | 4.41 | 0.32 | 94 | 1016.9 |
| 20260503204836 | 61 | 5 | 9.0 | 17.0 | 0.08 | 4.37 | 0.31 | 94 | 1016.9 |
| 20260503204314 | 61 | 323 | 11.0 | 18.0 | 0.08 | 4.37 | 0.31 | 94 | 1017.0 |
| 20260503203819 | 61 | 18 | 11.0 | 18.0 | 0.08 | 4.37 | 0.31 | 94 | 1016.9 |
| 20260503203323 | 61 | 22 | 9.0 | 17.0 | 0.08 | 4.37 | 0.31 | 94 | 1016.9 |
| 20260503202827 | 61 | 346 | 7.0 | 13.0 | 0.08 | 4.33 | 0.31 | 94 | 1016.8 |
| 20260503202333 | 61 | 13 | 9.0 | 13.0 | 0.08 | 4.33 | 0.31 | 94 | 1016.8 |
| 20260503201835 | 61 | 33 | 8.0 | 12.0 | 0.08 | 4.33 | 0.31 | 94 | 1016.9 |
| 20260503201321 | 61 | 11 | 8.0 | 14.0 | 0.08 | 4.33 | 0.31 | 94 | 1016.9 |
| 20260503200820 | 61 | 18 | 8.0 | 14.0 | 0.08 | 4.33 | 0.31 | 94 | 1016.8 |
| 20260503200347 | 61 | 21 | 9.0 | 14.0 | 0.12 | 4.33 | 0.31 | 94 | 1016.9 |
| 20260503195829 | 61 | 7 | 9.0 | 15.0 | 0.08 | 4.29 | 0.30 | 94 | 1017.0 |
| 20260503195313 | 61 | 343 | 10.0 | 15.0 | 0.08 | 4.29 | 0.30 | 94 | 1017.0 |
| 20260503194837 | 61 | 356 | 7.0 | 11.0 | 0.08 | 4.29 | 0.30 | 94 | 1016.9 |
| 20260503194322 | 61 | 6 | 6.0 | 11.0 | 0.12 | 4.29 | 0.30 | 94 | 1016.7 |
| 20260503193820 | 61 | 20 | 8.0 | 10.0 | 0.12 | 4.29 | 0.30 | 94 | 1016.9 |
| 20260503193342 | 61 | 7 | 8.0 | 12.0 | 0.12 | 4.29 | 0.30 | 94 | 1016.8 |
| 20260503192846 | 61 | 353 | 7.0 | 12.0 | 0.08 | 4.25 | 0.29 | 94 | 1016.9 |
| 20260503192330 | 61 | 338 | 9.0 | 13.0 | 0.12 | 4.25 | 0.29 | 94 | 1016.8 |
| 20260503191810 | 61 | 346 | 7.0 | 12.0 | 0.12 | 4.25 | 0.29 | 94 | 1016.9 |
| 20260503191315 | 61 | 1 | 6.0 | 9.0 | 0.12 | 4.25 | 0.29 | 94 | 1016.9 |
| 20260503190821 | 61 | 340 | 5.0 | 8.0 | 0.12 | 4.25 | 0.29 | 94 | 1016.8 |
| 20260503190347 | 61 | 345 | 5.0 | 8.0 | 0.12 | 4.21 | 0.28 | 94 | 1016.7 |
| 20260503185824 | 61 | 357 | 5.0 | 10.0 | 0.12 | 4.21 | 0.28 | 94 | 1016.7 |
| 20260503185329 | 61 | 358 | 5.0 | 10.0 | 0.12 | 4.21 | 0.28 | 94 | 1016.8 |
| 20260503184854 | 61 | 8 | 6.0 | 10.0 | 0.16 | 4.21 | 0.28 | 94 | 1016.8 |
| 20260503184319 | 61 | 340 | 6.0 | 10.0 | 0.12 | 4.17 | 0.28 | 94 | 1016.8 |
| 20260503183817 | 61 | 18 | 7.0 | 10.0 | 0.12 | 4.17 | 0.28 | 94 | 1016.7 |
| 20260503183323 | 61 | 7 | 7.0 | 10.0 | 0.16 | 4.17 | 0.28 | 94 | 1016.8 |
| 20260503182848 | 61 | 9 | 6.0 | 9.0 | 0.16 | 4.17 | 0.28 | 94 | 1016.9 |
| 20260503182332 | 61 | 347 | 4.0 | 9.0 | 0.12 | 4.13 | 0.27 | 94 | 1016.8 |
| 20260503181811 | 61 | 359 | 5.0 | 8.0 | 0.16 | 4.13 | 0.27 | 94 | 1016.7 |
| 20260503181333 | 60 | 334 | 5.0 | 9.0 | 0.16 | 4.13 | 0.27 | 94 | 1016.7 |
| 20260503180816 | 60 | 2 | 6.0 | 9.0 | 0.20 | 4.13 | 0.27 | 94 | 1016.6 |
| 20260503180321 | 60 | 358 | 6.0 | 10.0 | 0.16 | 4.09 | 0.26 | 94 | 1016.5 |
| 20260503175822 | 60 | 25 | 5.0 | 10.0 | 0.20 | 4.09 | 0.26 | 94 | 1016.6 |
| 20260503175327 | 60 | 352 | 7.0 | 10.0 | 0.20 | 4.09 | 0.26 | 94 | 1016.6 |
| 20260503174844 | 61 | 11 | 7.0 | 10.0 | 0.20 | 4.06 | 0.25 | 94 | 1016.8 |
| 20260503174334 | 61 | 9 | 6.0 | 8.0 | 0.20 | 4.06 | 0.25 | 94 | 1016.9 |
| 20260503173832 | 61 | 333 | 5.0 | 9.0 | 0.24 | 4.06 | 0.25 | 94 | 1017.0 |
| 20260503173316 | 61 | 349 | 6.0 | 11.0 | 0.20 | 4.02 | 0.24 | 94 | 1016.9 |
| 20260503172820 | 61 | 346 | 9.0 | 11.0 | 0.24 | 4.02 | 0.24 | 95 | 1016.9 |
| 20260503172344 | 61 | 17 | 7.0 | 10.0 | 0.24 | 4.02 | 0.24 | 95 | 1016.9 |
| 20260503171827 | 61 | 13 | 7.0 | 10.0 | 0.24 | 3.98 | 0.24 | 95 | 1017.1 |
| 20260503171331 | 61 | 27 | 7.0 | 10.0 | 0.28 | 3.98 | 0.24 | 95 | 1017.2 |
| 20260503170835 | 61 | 17 | 8.0 | 14.0 | 0.24 | 3.94 | 0.23 | 95 | 1017.3 |
| 20260503170311 | 61 | 344 | 9.0 | 14.0 | 0.28 | 3.94 | 0.23 | 95 | 1017.3 |